EDT,Max TemperatureF,Mean TemperatureF,Min TemperatureF,Max Dew PointF,MeanDew PointF,Min DewpointF,Max Humidity, Mean Humidity, Min Humidity, Max Sea Level PressureIn, Mean Sea Level PressureIn, Min Sea Level PressureIn, Max VisibilityMiles, Mean VisibilityMiles, Min VisibilityMiles, Max Wind SpeedMPH, Mean Wind SpeedMPH, Max Gust SpeedMPH,PrecipitationIn, CloudCover, Events, WindDirDegrees
2013-9-1,78,69,60,64,62,61,100,80,60,29.91,29.87,29.83,10,6,0,12,3,14,0.00,6,Fog,65
2013-9-2,75,66,57,67,62,57,100,87,73,29.83,29.76,29.68,10,6,0,21,4,29,1.19,5,Fog-Rain-Thunderstorm,204
2013-9-3,66,62,57,61,56,54,100,87,73,29.86,29.79,29.73,10,9,3,15,7,39,0.03,8,Rain,240
2013-9-4,69,61,53,57,55,52,100,82,63,29.93,29.91,29.86,10,8,2,16,6,32,0.23,7,Rain,240
2013-9-5,57,44,31,55,44,33,100,72,43,30.21,30.03,29.91,10,9,0,12,4,20,0.00,4,Fog,333
2013-9-6,64,47,29,44,35,28,100,68,36,30.28,30.21,30.09,10,6,0,16,5,22,0.00,3,Fog,221
2013-9-7,66,55,43,54,47,42,100,74,48,30.09,29.96,29.86,10,10,2,15,7,22,T,4,Rain,223
2013-9-8,57,44,31,56,44,32,100,74,47,30.15,29.94,29.81,10,8,1,16,5,26,0.07,5,Rain,313
2013-9-9,66,48,29,45,36,28,100,69,37,30.21,30.14,30.05,10,6,0,15,4,20,0.00,2,Fog,220
2013-9-10,71,59,47,69,62,44,100,90,80,30.05,29.99,29.93,10,4,0,12,5,15,0.91,7,Fog-Rain-Thunderstorm,226
2013-9-11,86,76,65,71,67,64,100,76,51,30.05,29.98,29.93,10,6,0,28,8,36,0.41,3,Fog-Rain-Thunderstorm,230
2013-9-12,70,64,57,66,64,57,100,94,87,29.94,29.79,29.67,10,6,1,13,4,39,0.12,7,Rain-Thunderstorm,234
2013-9-13,59,52,45,58,49,44,100,90,80,29.93,29.78,29.66,10,6,2,12,4,28,0.06,8,Rain,326
2013-9-14,57,46,35,45,41,34,100,77,54,30.12,29.99,29.89,10,8,2,13,4,26,T,6,,256
2013-9-15,63,48,33,49,43,33,100,78,55,30.14,30.10,30.05,10,8,0,16,7,24,0.06,3,Fog-Rain,226
2013-9-16,51,40,29,49,42,28,100,78,56,30.38,30.14,30.01,10,8,2,22,4,29,0.14,7,Rain,300
2013-9-17,62,44,25,40,32,24,100,66,32,30.51,30.42,30.35,10,8,0,9,1,13,0.00,1,Fog,216
2013-9-18,69,50,31,46,36,30,100,67,33,30.34,30.27,30.16,10,5,0,12,3,18,0.00,4,Fog,233
2013-9-19,74,53,32,51,39,32,100,68,35,30.18,30.14,30.06,10,5,0,13,3,18,0.00,1,Fog,230
2013-9-20,78,58,38,53,45,37,100,70,40,30.10,30.03,29.88,10,6,0,16,5,22,0.00,3,Fog,203
2013-9-21,72,64,55,56,54,46,100,74,48,29.88,29.69,29.60,10,8,2,26,12,35,0.22,4,Rain,213
2013-9-22,56,49,41,55,46,39,100,90,80,29.94,29.73,29.58,10,7,2,17,7,28,0.13,8,Rain,258
2013-9-23,44,41,38,39,36,34,92,84,76,30.11,30.03,29.92,10,10,3,10,4,17,0.00,8,,291
2013-9-24,58,46,34,40,37,36,100,72,43,30.08,30.02,29.96,10,10,10,16,3,33,0.00,4,,296
2013-9-25,65,48,31,47,39,30,100,74,48,30.03,29.98,29.95,10,6,0,9,2,28,0.00,2,Fog,335
2013-9-26,60,47,33,45,39,33,100,77,53,30.19,30.09,30.01,10,5,0,15,5,22,0.00,3,Fog,63
2013-9-27,60,47,34,47,45,35,100,80,60,30.33,30.26,30.18,10,10,6,13,4,17,0.00,5,,65
2013-9-28,71,51,31,51,37,30,100,70,40,30.39,30.32,30.25,10,4,0,9,1,25,0.00,4,Fog,221
2013-9-29,71,51,31,48,36,30,100,65,29,30.26,30.20,30.08,10,5,0,15,3,41,0.00,3,Fog,208
2013-9-30,71,51,31,48,37,30,100,69,37,30.12,30.06,30.00,10,6,0,10,1,15,0.00,3,Fog,305